EYESAT A (AO-27)

Last updated on Sun Jul 26 2026 00:03:19 GMT+0000 (Coordinated Universal Time)

1 22825U 93061C 26206.45784625 .00000083 00000+0 48738-4 0 9999 2 22825 98.6860 273.8533 0008162 356.2107 3.9012 14.30951160712476
UTC large
Height (km)
Speed (km/s)
/
Latitude / Longitude
Inclination (degrees)
Orbital Period (minutes)
Azimuth
Elevation
Range (km)
Doppler Factor

Next 0 passes for location: London (51.5072 / 0.1276)

No passes found over London.
EYESAT A (AO-27)